Location: Esterri de Aneo
(42.6284°N, 1.1223°E)
Time: 16:48:31
(UTC+00:00)

Cosmos 2098 Rocket - Pass Details

Date: 11 December 2025
Orbit: 349 x 865 km, 82.9° (Epoch: 16 January)

Event Time Altitude Azimuth Distance (km) Brightness Sun altitude
Rises 17:29:15 0° 208° (SSW) 2,648 7.1 -11.9°
Reaches altitude 10° 17:31:21 10° 217° (SW) 1,846 6.4 -12.3°
Maximum altitude 17:35:10 37° 285° (WNW) 975 4.6 -13.0°
Drops below altitude 10° 17:39:39 10° 353° (N) 2,169 5.7 -13.7°
Sets 17:42:18 0° 1° (N) 3,182 6.5 -14.2°
